This is the latest recevied weather packets stored in our database for station/object ac2ev. If no packets are shown the sender has not sent any weather packets the latest 10 day(s).
| Time | Temp. | Humidity | Pressure | Rain* | Wind** | Luminosity | Snow |
|---|---|---|---|---|---|---|---|
| 1788296495 | 23.89° C | 84% | 1013.9 hPa | 0 mm | - | - | - |
| 1788296184 | 23.89° C | 84% | 1013.7 hPa | 0 mm | - | - | - |
| 1788295878 | 23.89° C | 85% | 1013.7 hPa | 0 mm | - | - | - |
| 1788295572 | 23.89° C | 85% | 1013.7 hPa | 0 mm | - | - | - |
| 1788295273 | 23.89° C | 85% | 1013.8 hPa | 0 mm | - | - | - |
| 1788294973 | 23.89° C | 85% | 1013.8 hPa | 0 mm | - | - | - |
| 1788294672 | 23.33° C | 86% | 1013.7 hPa | 0 mm | - | - | - |
| 1788294373 | 23.33° C | 85% | 1013.8 hPa | 0 mm | - | - | - |
| 1788294073 | 23.33° C | 85% | 1014 hPa | 0 mm | - | - | - |
| 1788293771 | 23.89° C | 85% | 1014.1 hPa | 0 mm | - | - | - |
| 1788293470 | 23.89° C | 85% | 1014 hPa | 0 mm | - | - | - |
| 1788293174 | 23.89° C | 84% | 1014 hPa | 0 mm | - | - | - |
| 1788292868 | 23.89° C | 84% | 1014 hPa | 0 mm | - | - | - |
| 1788292582 | 24.44° C | 84% | 1013.9 hPa | 0 mm | - | - | - |
| 1788292269 | 24.44° C | 83% | 1014 hPa | 0 mm | - | - | - |
| 1788291969 | 24.44° C | 83% | 1014 hPa | 0 mm | - | - | - |
| 1788291669 | 24.44° C | 82% | 1014 hPa | 0 mm | - | - | - |
| 1788291370 | 25° C | 82% | 1013.9 hPa | 0 mm | - | - | - |
| 1788291067 | 25° C | 83% | 1014 hPa | 0 mm | - | - | - |
| 1788290766 | 25° C | 82% | 1013.9 hPa | 0 mm | - | - | - |
| 1788290486 | 24.44° C | 83% | 1013.9 hPa | 0 mm | - | - | - |
| 1788290165 | 24.44° C | 83% | 1014 hPa | 0 mm | - | - | - |
| 1788289864 | 24.44° C | 82% | 1013.9 hPa | 0 mm | - | - | - |
| 1788289563 | 24.44° C | 85% | 1013.9 hPa | 0 mm | - | - | - |
| 1788289265 | 23.89° C | 84% | 1013.9 hPa | 0 mm | - | - | - |
* Rain latest hour (hover to see other rain measurements)
** Current wind speed in m/s (hover to see current wind gust speed)